Погода в Самутпракане

Таиланд     13°37′19″N   100°36′05″E
темп.,
°C
ветер,
м/с
пор.,
м/с
влажн.,
%
обл.,
%
осадки,
мм/ч
давл.,
гПа
погр.,
м
24 сентября, пт
пт2401:00+28з4579100 2.3 1008472
04:00+27зсз458196 0.1 1007255
07:00+26сз4683100 0.1 1009303
10:00+27зсз5681100 0.1 1010472
13:00+27зсз5781100 0.2 1008492
16:00+26зюз3582100 0.1 1006356
19:00+26ююз3487100 2.3 1008272
22:00+25зюз4591100 6.8 1010360
25 сентября, сб
сб2501:00+25зюз4792100 13.6 1008526
04:00+25юз5889100 4.8 1006472
07:00+26юз568398 5.1 1008466
10:00+27зюз457986 0.2 1009546
13:00+27з237487 0.6 1007693
16:00+27ссз1177100 0.3 1005440
19:00+26всв2283100 1.4 1007127
22:00+25всв4587100 2.2 1008235
26 сентября, вс
вс2601:00+25вюв1289100 3.6 1007246
04:00+25в1291100 2.9 1005179
07:00+25св1188100 6.2 100790
10:00+27вюв3483100 5.3 1009412
13:00+28ююв4479100 8.7 1006673
16:00+28ю5577100 0.3 1005713
19:00+27ююв5678100 0.3 1007506
22:00+27ююв5681100 0.0 1009505
27 сентября, пн
пн2701:00+26юв458659 2.4 1008317
04:00+26вюв348699 5.9 1007241
07:00+26в338492 8.6 1008321
10:00+27всв337961 0.3 1010479
13:00+29ю327196 0.6 1007696
16:00+29ююз33697 0.0 1005469
19:00+28ю347618 0.0 1007378
22:00+28ю347795 0.0 1009357
28 сентября, вт
вт2801:00+28ю347937 0.8 1008304
04:00+27ююв228039 0.8 1007226
07:00+28ююв237946 1.5 1009339
10:00+29вюв227411 1.6 1010751
13:00+29ююв437513 1.6 1008606
16:00+29ю33715 0.0 1005506
19:00+28ю337536 0.0 1007269
22:00+28ююз34765 0.0 1009303